TRANSIT 5B-2 DEB, 25156

Orbit data source: Space-Track

TRANSIT 5B-2 DEB, 25156 is space debris in LEO originally from a launch on Thu, 05 Dec 1963 UTC launched from the Air Force Western Test Range (AFWTR). Debris objects in space refer to the collection of defunct objects orbiting the Earth. Examples of debris include non-operational satellites, rocket bodies, and fragments generated from explosions, collisions, or faulty payload assembly.

Loading next visibility...
Identifier
25156, 1963-049N
Orbit
LEO
Last TLE update
11 hours ago
Origin
Manufacturer
Unknown
Mission
Spacecraft
Bus & Motor
Unknown
Mass
Unknown
Launch date (UTC)
1963-12-05 (61 years ago)
Launch vehicle
Unknown
Launch site
Air Force Western Test Range (AFWTR)
Object type
Payload
Rocket body
Debris
Shape & HBR
Unknown
Radar Cross Section
Medium (>0.1 m² and <1 m²)

Expand to show TLE details & history

TLE from 11 hours ago
0 TRANSIT 5B-2 DEB
1 25156U 63049N   25128.76618519  .00000891  00000-0  12369-2 0  9993
2 25156  89.9180  75.3324 0044034 124.2940 271.6946 13.56756909344183
Epoch: 2025-05-08T18:23Z
Definitive object data (Epoch: 2025-05-08T18:23:18.4Z)
Latitude
35.5515°
Longitude
-67.26794°
Altitude
1,051.51 km
Speed
7.33 km/s
True Right ascension
05h 01m 33s
True Declination
35° 23' 43"
Sunlit
Object was in daylight at TLE epoch
Visualization TLE readout
Latitude
-21.53182°
Longitude
112.70196°
Altitude
1,048.951 km
Speed
7.33 km/s
Apparent Right ascension
20h 01m 56s
Apparent Declination
-53° 47' 59"
Sunlit
Object is in full shadow
Visualization observer readout
Local Sidereal Time
13:57:51
Azimuth
136.031° SSE
Elevation
-31.728°
Doppler factor
1
Orbital elements
Apogee altitude
1,077.227 km
Perigee altitude
1,011.857 km
Semi-major axis
7,422.679 km
Eccentricity
0.0044034
Inclination
89.918°
RAAN
75.3324°
Arg. of periapsis
124.294°
True anomaly
271.19015°
Mean anomaly
271.6946°
Eccentric anomaly
271.44238°
Mean motion
3.39392 °/min
BSTAR
0.0012369
Orbital period
106.07 mins
Loading maneuver chart data...
Loading SW <> Apogee altitude chart data...
Loading historical data...
Loading historical data...
Loading historical data...
Loading historical data...
Loading historical data...
Loading historical data...
Loading historical data...

TRANSIT 5B-2 DEB Visibility forecast

Observer location: undefined°, undefined°

Span
Click to sort rows by Start time (UTC) header in descending order
Start Az.
Max El. time (UTC)
Max El. Az.
Max El.
End time (UTC)
End Az.
6 mins2025-05-09 07:14:07.420Z48.77° ENE2025-05-09 07:17:07.420Z79.707° E15.314°2025-05-09 07:20:07.420Z109.611° ESE
10 mins2025-05-09 08:59:07.420Z355.892° N2025-05-09 09:03:07.420Z305.676° NW43.473°2025-05-09 09:09:07.420Z192.212° SSW
5 mins2025-05-09 19:10:07.420Z94.32° ESE2025-05-09 19:12:07.420Z74.375° E14.848°2025-05-09 19:15:07.420Z44.28° NE
11 mins2025-05-09 20:52:07.420Z181.396° SSW2025-05-09 20:57:07.420Z219.88° SW44.07°2025-05-09 21:03:07.420Z354.972° N
|